FW6082 Weather Reports


time (UTC)temp
C
wind
direction
speed
KPH
gust
KPH
rain 1hr
cm
rain 24hr
cm
rain mn
cm
humidity
%
barometer
mb
20260906103012 8 42 0.0 0.0 0.00 0.00 0.00 40 1009.7
20260906101504 8 42 0.0 0.0 0.00 0.00 0.00 41 1009.7
20260906100004 8 42 0.0 0.0 0.00 0.00 0.00 46 1009.6
20260906094503 9 42 0.0 0.0 0.00 0.00 0.00 41 1009.6
20260906093001 10 42 0.0 0.0 0.00 0.00 0.00 41 1009.6
20260906091601 8 18 0.0 3.2 0.00 0.00 0.00 44 1009.4
20260906090100 8 32 0.0 0.0 0.00 0.00 0.00 44 1009.5
20260906084600 8 32 0.0 0.0 0.00 0.00 0.00 46 1009.5
20260906083103 8 32 0.0 0.0 0.00 0.00 0.00 45 1009.4
20260906081655 9 32 0.0 0.0 0.00 0.00 0.00 44 1009.4
20260906080054 9 32 0.0 0.0 0.00 0.00 0.00 42 1009.5
20260906074551 10 32 0.0 0.0 0.00 0.00 0.00 43 1009.6
20260906073050 10 32 0.0 0.0 0.00 0.00 0.00 43 1009.6
20260906071549 11 32 0.0 0.0 0.00 0.00 0.00 40 1009.6
20260906070047 11 32 0.0 1.6 0.00 0.00 0.00 35 1009.7
20260906064545 10 32 0.0 0.0 0.00 0.00 0.00 44 1009.8
20260906063144 10 32 0.0 0.0 0.00 0.00 0.00 45 1010.0
20260906061546 10 32 0.0 0.0 0.00 0.00 0.00 44 1010.1
20260906060042 11 32 0.0 0.0 0.00 0.00 0.00 39 1010.4
20260906054542 11 32 0.0 0.0 0.00 0.00 0.00 36 1010.3
20260906053036 11 32 0.0 0.0 0.00 0.00 0.00 36 1010.4
20260906051536 11 32 0.0 0.0 0.00 0.00 0.00 38 1010.6
20260906050033 11 32 0.0 0.0 0.00 0.00 0.00 36 1010.6
20260906044630 11 32 0.0 0.0 0.00 0.00 0.00 37 1010.6
20260906043033 12 32 0.0 1.6 0.00 0.00 0.00 36 1010.7
20260906041528 12 342 0.0 0.0 0.00 0.00 0.00 38 1010.9
20260906040022 11 342 0.0 0.0 0.00 0.00 0.00 39 1011.0
20260906034533 11 342 0.0 0.0 0.00 0.00 0.00 39 1011.1
20260906033020 12 342 0.0 0.0 0.00 0.00 0.00 38 1011.2
20260906031527 12 342 0.0 0.0 0.00 0.00 0.00 36 1011.2
20260906030119 13 339 0.0 3.2 0.00 0.00 0.00 35 1011.3
20260906024518 12 330 0.0 0.0 0.00 0.00 0.00 37 1011.3
20260906023017 12 330 0.0 0.0 0.00 0.00 0.00 38 1011.3
20260906021517 11 330 0.0 0.0 0.00 0.00 0.00 41 1011.2
20260906020016 11 330 0.0 0.0 0.00 0.00 0.00 40 1011.2
20260906014516 12 330 0.0 0.0 0.00 0.00 0.00 40 1011.2
20260906013015 13 330 0.0 0.0 0.00 0.00 0.00 37 1011.3
20260906011614 14 330 0.0 0.0 0.00 0.00 0.00 34 1011.3
20260906010014 15 330 0.0 0.0 0.00 0.00 0.00 32 1011.3
20260906004514 16 330 0.0 1.6 0.00 0.00 0.00 30 1011.1
20260906003013 16 330 0.0 3.2 0.00 0.00 0.00 30 1011.0
20260906001519 17 293 0.0 0.0 0.00 0.00 0.00 28 1010.8
20260906000012 17 303 0.0 1.6 0.00 0.00 0.00 27 1010.7
20260905234511 18 303 0.0 3.2 0.00 0.00 0.00 26 1010.6
20260905233110 18 326 1.6 4.8 0.00 0.00 0.00 23 1010.3
20260905231515 19 247 0.0 8.0 0.00 0.00 0.00 22 1010.3
20260905230009 20 212 0.0 12.9 0.00 0.00 0.00 19 1010.2
20260905224509 20 180 4.8 14.5 0.00 0.00 0.00 18 1009.9
20260905223016 21 310 0.0 9.7 0.00 0.00 0.00 17 1009.8
20260905221507 21 276 3.2 9.7 0.00 0.00 0.00 18 1009.7
20260905220008 21 262 3.2 11.3 0.00 0.00 0.00 18 1009.9
20260905214511 21 246 4.8 14.5 0.00 0.00 0.00 18 1009.7
20260905213006 22 293 4.8 11.3 0.00 0.00 0.00 19 1009.4
20260905211505 22 211 6.4 14.5 0.00 0.00 0.00 18 1009.6
20260905210005 22 238 4.8 14.5 0.00 0.00 0.00 16 1009.2
20260905204505 23 217 3.2 11.3 0.00 0.00 0.00 16 1009.2
20260905203004 23 234 1.6 9.7 0.00 0.00 0.00 16 1009.2
20260905201503 23 207 6.4 16.1 0.00 0.00 0.00 15 1009.1
20260905200002 23 256 3.2 17.7 0.00 0.00 0.00 15 1009.0
20260905194502 24 243 8.0 16.1 0.00 0.00 0.00 15 1009.1
20260905193004 25 269 3.2 14.5 0.00 0.00 0.00 18 1009.1
20260905191559 25 201 8.0 19.3 0.00 0.00 0.00 16 1009.2
20260905190058 25 226 4.8 19.3 0.00 0.00 0.00 16 1009.2
20260905184607 25 249 6.4 16.1 0.00 0.00 0.00 16 1009.1
20260905183057 25 240 8.0 17.7 0.00 0.00 0.00 15 1009.2
20260905181556 26 241 6.4 17.7 0.00 0.00 0.00 16 1009.2
20260905180054 25 243 4.8 16.1 0.00 0.00 0.00 17 1009.4
20260905174553 25 241 6.4 16.1 0.00 0.00 0.00 16 1009.4
20260905173053 25 242 4.8 14.5 0.00 0.00 0.00 16 1009.5
20260905171550 25 240 4.8 17.7 0.00 0.00 0.00 16 1009.7
20260905170049 25 305 8.0 14.5 0.00 0.00 0.00 14 1010.0
20260905164548 25 231 6.4 17.7 0.00 0.00 0.00 13 1010.2
20260905163044 25 243 3.2 12.9 0.00 0.00 0.00 12 1010.4
20260905161540 25 278 1.6 12.9 0.00 0.00 0.00 13 1010.5
20260905160037 26 248 0.0 6.4 0.00 0.00 0.00 13 1010.8
20260905154534 26 240 0.0 3.2 0.00 0.00 0.00 12 1011.0
20260905153035 25 128 0.0 1.6 0.00 0.00 0.00 12 1011.2
20260905151525 25 126 0.0 1.6 0.00 0.00 0.00 13 1011.6
20260905150024 23 128 0.0 4.8 0.00 0.00 0.00 18 1011.9
20260905144518 23 135 1.6 8.0 0.00 0.00 0.00 13 1012.2
20260905143022 22 116 0.0 4.8 0.00 0.00 0.00 14 1012.2
20260905141512 22 106 0.0 3.2 0.00 0.00 0.00 16 1012.4
20260905140005 21 91 0.0 4.8 0.00 0.00 0.00 15 1012.7
20260905134601 20 131 0.0 3.2 0.00 0.00 0.00 24 1012.8
20260905133056 18 131 0.0 3.2 0.00 0.00 0.00 23 1013.0
20260905131601 16 132 0.0 1.6 0.00 0.00 0.00 29 1013.1
20260905130047 13 5 0.0 0.0 0.00 0.00 0.00 36 1013.1
20260905124544 11 5 0.0 1.6 0.00 0.00 0.00 41 1013.1
20260905123102 8 5 0.0 0.0 0.00 0.00 0.00 44 1013.1
20260905121541 8 5 0.0 0.0 0.00 0.00 0.00 55 1013.1
20260905120041 7 5 0.0 0.0 0.00 0.00 0.00 47 1013.1
20260905114542 7 5 0.0 0.0 0.00 0.00 0.00 50 1013.0
20260905113035 7 5 0.0 0.0 0.00 0.00 0.00 48 1013.0
20260905111536 7 5 0.0 0.0 0.00 0.00 0.00 48 1013.0
20260905110034 7 5 0.0 0.0 0.00 0.00 0.00 43 1012.9
20260905104529 7 5 0.0 0.0 0.00 0.00 0.00 47 1012.7